This is the latest recevied weather packets stored in our database for station/object W8DRH-13. If no packets are shown the sender has not sent any weather packets the latest 10 day(s).
| Time | Temp. | Humidity | Pressure | Rain* | Wind** | Luminosity | Snow |
|---|---|---|---|---|---|---|---|
| 1777857412 | 10° C | 75% | 1010.2 hPa | 0 mm | - | 0 W/m² | - |
| 1777857108 | 10° C | 75% | 1010.4 hPa | 0 mm | - | 0 W/m² | - |
| 1777856804 | 10° C | 75% | 1010.3 hPa | 0 mm | - | 0 W/m² | - |
| 1777856500 | 10° C | 75% | 1010.3 hPa | 0 mm | - | 0 W/m² | - |
| 1777856197 | 10° C | 75% | 1010.4 hPa | 0 mm | - | 0 W/m² | - |
| 1777855894 | 10° C | 75% | 1010.5 hPa | 0 mm | - | 0 W/m² | - |
| 1777855592 | 10° C | 75% | 1010.5 hPa | 0 mm | - | 0 W/m² | - |
| 1777855289 | 10° C | 74% | 1010.3 hPa | 0 mm | - | 0 W/m² | - |
| 1777854985 | 10° C | 73% | 1010.5 hPa | 0 mm | - | 0 W/m² | - |
| 1777854682 | 10° C | 73% | 1010.4 hPa | 0 mm | - | 0 W/m² | - |
| 1777854379 | 10° C | 73% | 1010.5 hPa | 0 mm | - | 0 W/m² | - |
| 1777854076 | 10° C | 72% | 1010.6 hPa | 0 mm | - | 0 W/m² | - |
| 1777853774 | 10° C | 72% | 1010.7 hPa | 0 mm | - | 0 W/m² | - |
| 1777853469 | 10° C | 71% | 1010.7 hPa | 0 mm | - | 0 W/m² | - |
| 1777853167 | 10.56° C | 70% | 1010.6 hPa | 0 mm | - | 2 W/m² | - |
| 1777852865 | 10.56° C | 70% | 1010.7 hPa | 0 mm | - | 2 W/m² | - |
| 1777852563 | 10.56° C | 69% | 1010.9 hPa | 0 mm | - | 3 W/m² | - |
| 1777852259 | 10.56° C | 68% | 1011.1 hPa | 0 mm | - | 4 W/m² | - |
| 1777851957 | 10.56° C | 68% | 1011 hPa | 0 mm | - | 6 W/m² | - |
| 1777851655 | 11.11° C | 67% | 1010.9 hPa | 0 mm | - | 11 W/m² | - |
| 1777851351 | 11.11° C | 66% | 1011 hPa | 0 mm | - | 23 W/m² | - |
| 1777851047 | 11.11° C | 66% | 1011 hPa | 0 mm | - | 47 W/m² | - |
| 1777850744 | 11.67° C | 64% | 1011.3 hPa | 0 mm | - | 48 W/m² | - |
| 1777850442 | 11.67° C | 63% | 1011 hPa | 0 mm | - | 55 W/m² | - |
| 1777850140 | 12.22° C | 61% | 1010.8 hPa | 0 mm | - | 57 W/m² | - |
* Rain latest hour (hover to see other rain measurements)
** Current wind speed in m/s (hover to see current wind gust speed)